This is the latest recevied weather packets stored in our database for station/object N3TTT-13. If no packets are shown the sender has not sent any weather packets the latest 10 day(s).
| Time | Temp. | Humidity | Pressure | Rain* | Wind** | Luminosity | Snow |
|---|---|---|---|---|---|---|---|
| 1777924619 | 23.33° C | 36% | 1011.7 hPa | 0 mm | - | 89 W/m² | - |
| 1777924315 | 23.33° C | 37% | 1011.7 hPa | 0 mm | - | 63 W/m² | - |
| 1777924013 | 23.33° C | 36% | 1011.7 hPa | 0 mm | - | 95 W/m² | - |
| 1777923708 | 23.33° C | 35% | 1011.7 hPa | 0 mm | - | 58 W/m² | - |
| 1777923405 | 23.33° C | 38% | 1011.9 hPa | 0 mm | - | 74 W/m² | - |
| 1777923103 | 23.89° C | 36% | 1011.9 hPa | 0 mm | - | 172 W/m² | - |
| 1777922801 | 23.89° C | 38% | 1011.9 hPa | 0 mm | - | 509 W/m² | - |
| 1777922499 | 23.89° C | 35% | 1012 hPa | 0 mm | - | 532 W/m² | - |
| 1777922197 | 23.33° C | 36% | 1012 hPa | 0 mm | - | 545 W/m² | - |
| 1777921893 | 24.44° C | 33% | 1012.1 hPa | 0 mm | - | 553 W/m² | - |
| 1777921589 | 25° C | 35% | 1012 hPa | 0 mm | - | 585 W/m² | - |
| 1777921286 | 24.44° C | 36% | 1012 hPa | 0 mm | - | 563 W/m² | - |
| 1777920982 | 23.89° C | 37% | 1012.1 hPa | 0 mm | - | 575 W/m² | - |
| 1777920679 | 23.33° C | 36% | 1012.5 hPa | 0 mm | - | 591 W/m² | - |
| 1777920375 | 23.33° C | 36% | 1012.3 hPa | 0 mm | - | 557 W/m² | - |
| 1777920070 | 23.33° C | 35% | 1012.5 hPa | 0 mm | - | 526 W/m² | - |
| 1777919767 | 23.89° C | 37% | 1012.5 hPa | 0 mm | - | 527 W/m² | - |
| 1777919465 | 23.89° C | 34% | 1012.5 hPa | 0 mm | - | 494 W/m² | - |
| 1777919162 | 23.89° C | 34% | 1012.7 hPa | 0 mm | - | 515 W/m² | - |
| 1777918860 | 23.33° C | 34% | 1012.6 hPa | 0 mm | - | 596 W/m² | - |
| 1777918556 | 23.89° C | 35% | 1012.7 hPa | 0 mm | - | 615 W/m² | - |
| 1777918254 | 23.89° C | 34% | 1012.9 hPa | 0 mm | - | 532 W/m² | - |
| 1777917953 | 23.33° C | 35% | 1012.7 hPa | 0 mm | - | 524 W/m² | - |
| 1777917652 | 23.33° C | 35% | 1012.7 hPa | 0 mm | - | 579 W/m² | - |
| 1777917348 | 23.33° C | 35% | 1012.7 hPa | 0 mm | - | 627 W/m² | - |
* Rain latest hour (hover to see other rain measurements)
** Current wind speed in m/s (hover to see current wind gust speed)